Weather History for Russell, KS

Change the Weather History Date:

Friday, February 15, 2013

  Actual Average Record
Temperature  
Mean Temperature 26 °F -  
Max Temperature 39 °F 43 °F 70 °F (2000)
Min Temperature 12 °F 19 °F -4 °F (2007)
Degree Days  
Heating Degree Days 40    
Moisture  
Dew Point 13 °F    
Average Humidity 61    
Maximum Humidity 88    
Minimum Humidity 32    
Precipitation  
Precipitation 0.00 in - - ()
Sea Level Pressure  
Sea Level Pressure 30.41 in    
Wind  
Wind Speed 10 mph (NW)    
Max Wind Speed 17 mph    
Max Gust Speed 25 mph    
Visibility 10 miles    
Events Snow    
Averages and records for this station are not official NWS values.
T = Trace of Precipitation, MM = Missing Value Source: NWS Daily Summary

Daily Weather History Graph

Daily Weather History Graph

Search for Another Location

Airport:

Trip Planner

Search our weather history database for the weather conditions in past years. The results will help you decide how hot, cold, wet, or windy it might be!

Date:

Astronomy

Feb. 15, 2013 Rise Set
Actual Time 7:26 AM CST 6:13 PM CST
Civil Twilight 6:58 AM CST 6:40 PM CST
Nautical Twilight 6:27 AM CST 7:11 PM CST
Astronomical Twilight 5:56 AM CST 7:42 PM CST
Moon 10:06 AM CST (2/15) No Moon Set
Length of Visible Light 11h 41m
Length of Day
10h 47m
Waxing Crescent, 30% of the Moon is Illuminated
Feb 15
Waxing Crescent
Feb 17
First Quarter
Feb 25
Full
Mar 4
Last Quarter
Mar 11
New

Hourly Weather History & Observations

Time (CST) Temp. Windchill Dew Point Humidity Pressure Visibility Wind Dir Wind Speed Gust Speed Precip Events Conditions
12:53 AM 23.0 °F 10.1 °F 16.0 °F 74% 30.38 in 10.0 mi NNW 15.0 mph - N/A   Clear
1:53 AM 21.9 °F 9.2 °F 15.1 °F 75% 30.39 in 10.0 mi NNW 13.8 mph - N/A   Clear
2:53 AM 19.9 °F 9.3 °F 15.1 °F 81% 30.40 in 10.0 mi North 9.2 mph - N/A   Clear
3:53 AM 18.0 °F - 12.9 °F 81% 30.41 in 10.0 mi Calm Calm - N/A   Clear
4:53 AM 19.0 °F 10.0 °F 14.0 °F 81% 30.42 in 10.0 mi North 6.9 mph - N/A   Clear
5:53 AM 12.9 °F 3.8 °F 10.0 °F 88% 30.45 in 10.0 mi WNW 5.8 mph - 0.00 in Snow Light Snow
6:53 AM 12.9 °F 5.2 °F 10.0 °F 88% 30.46 in 10.0 mi SW 4.6 mph - 0.00 in   Clear
7:53 AM 14.0 °F 5.1 °F 10.0 °F 84% 30.46 in 10.0 mi West 5.8 mph - N/A   Clear
8:53 AM 21.9 °F 15.7 °F 17.1 °F 82% 30.46 in 10.0 mi West 4.6 mph - 0.00 in   Clear
9:53 AM 27.0 °F - 18.0 °F 69% 30.45 in 10.0 mi Calm Calm - N/A   Partly Cloudy
10:53 AM 30.9 °F - 18.0 °F 59% 30.43 in 10.0 mi North - - N/A   Clear
11:53 AM 35.1 °F 27.4 °F 19.0 °F 52% 30.42 in 10.0 mi West 10.4 mph - N/A   Overcast
12:53 PM 37.0 °F 30.4 °F 17.1 °F 44% 30.40 in 10.0 mi WNW 9.2 mph - N/A   Overcast
1:53 PM 39.9 °F 31.4 °F 12.9 °F 33% 30.37 in 10.0 mi NW 16.1 mph 25.3 mph N/A   Mostly Cloudy
2:53 PM 39.9 °F 32.9 °F 12.0 °F 32% 30.35 in 10.0 mi NW 11.5 mph 20.7 mph N/A   Scattered Clouds
3:53 PM 39.9 °F 32.1 °F 12.0 °F 32% 30.34 in 10.0 mi NW 13.8 mph - N/A   Overcast
4:53 PM 39.0 °F 29.9 °F 10.9 °F 32% 30.33 in 10.0 mi NNW 17.3 mph 24.2 mph N/A   Overcast
5:53 PM 36.0 °F 26.7 °F 14.0 °F 41% 30.36 in 10.0 mi NNW 15.0 mph 25.3 mph N/A   Overcast
6:53 PM 35.1 °F 24.8 °F 14.0 °F 42% 30.39 in 10.0 mi NNW 17.3 mph 25.3 mph N/A   Overcast
7:53 PM 30.0 °F 20.5 °F 10.0 °F 43% 30.42 in 10.0 mi North 11.5 mph - N/A   Overcast
8:53 PM 24.1 °F 14.4 °F 9.0 °F 53% 30.43 in 10.0 mi North 9.2 mph - N/A   Clear
9:53 PM 19.0 °F 10.0 °F 9.0 °F 65% 30.43 in 10.0 mi NNW 6.9 mph - N/A   Clear
10:53 PM 18.0 °F 9.8 °F 8.1 °F 65% 30.43 in 10.0 mi WSW 5.8 mph - N/A   Clear